TimeCST,TemperatureF,Dew PointF,Humidity,Sea Level PressureIn,VisibilityMPH,Wind Direction,Wind SpeedMPH,Gust SpeedMPH,PrecipitationIn,Events,Conditions,WindDirDegrees,DateUTC
12:15 AM,37.4,23.0,56,29.91,10.0,SSE,17.3,25.3,N/A,,Overcast,160,2012-12-06 06:15:00
12:35 AM,37.4,23.0,56,29.90,10.0,SSE,15.0,23.0,N/A,,Overcast,150,2012-12-06 06:35:00
12:55 AM,37.4,23.0,56,29.89,10.0,SSE,18.4,25.3,N/A,,Overcast,150,2012-12-06 06:55:00
1:15 AM,37.4,24.8,60,29.87,10.0,SSE,20.7,26.5,N/A,,Overcast,150,2012-12-06 07:15:00
1:35 AM,37.4,24.8,60,29.87,10.0,SSE,23.0,27.6,N/A,,Overcast,160,2012-12-06 07:35:00
1:55 AM,37.4,26.6,65,29.87,10.0,SSE,16.1,24.2,N/A,,Overcast,160,2012-12-06 07:55:00
2:15 AM,37.4,26.6,65,29.86,10.0,SSE,17.3,21.9,N/A,,Overcast,150,2012-12-06 08:15:00
2:35 AM,39.2,26.6,61,29.85,10.0,SSE,16.1,20.7,N/A,,Overcast,160,2012-12-06 08:35:00
2:55 AM,39.2,28.4,65,29.85,10.0,SSE,13.8,21.9,N/A,,Overcast,150,2012-12-06 08:55:00
7:35 AM,41.0,35.6,81,29.79,10.0,South,13.8,19.6,N/A,,Scattered Clouds,180,2012-12-06 13:35:00
7:55 AM,41.0,35.6,81,29.78,10.0,South,12.7,23.0,N/A,,Clear,190,2012-12-06 13:55:00
8:15 AM,41.0,35.6,81,29.79,10.0,South,11.5,19.6,N/A,,Scattered Clouds,190,2012-12-06 14:15:00
8:35 AM,41.0,35.6,81,29.80,10.0,SSW,11.5,-,N/A,,Overcast,200,2012-12-06 14:35:00
8:55 AM,41.0,35.6,81,29.80,10.0,SSW,11.5,-,N/A,,Overcast,200,2012-12-06 14:55:00
9:15 AM,41.0,35.6,81,29.81,10.0,SSW,9.2,-,N/A,,Overcast,210,2012-12-06 15:15:00
9:35 AM,41.0,35.6,81,29.81,10.0,SSW,6.9,-,N/A,,Scattered Clouds,210,2012-12-06 15:35:00
9:55 AM,42.8,37.4,81,29.81,10.0,SW,10.4,-,N/A,,Clear,220,2012-12-06 15:55:00
10:15 AM,42.8,35.6,76,29.81,10.0,SW,8.1,-,N/A,,Clear,230,2012-12-06 16:15:00
10:35 AM,42.8,33.8,70,29.82,10.0,West,10.4,-,N/A,,Clear,260,2012-12-06 16:35:00
10:55 AM,44.6,33.8,66,29.82,10.0,West,12.7,-,N/A,,Clear,260,2012-12-06 16:55:00
11:15 AM,44.6,32.0,61,29.82,10.0,WNW,15.0,-,N/A,,Clear,290,2012-12-06 17:15:00
11:35 AM,44.6,32.0,61,29.82,10.0,WNW,13.8,20.7,N/A,,Clear,290,2012-12-06 17:35:00
11:55 AM,42.8,32.0,66,29.83,10.0,West,17.3,21.9,N/A,,Clear,280,2012-12-06 17:55:00
12:15 PM,42.8,32.0,66,29.83,10.0,West,13.8,19.6,N/A,,Clear,280,2012-12-06 18:15:00
12:35 PM,42.8,32.0,66,29.83,10.0,West,17.3,21.9,N/A,,Clear,280,2012-12-06 18:35:00
12:55 PM,42.8,32.0,66,29.83,10.0,WNW,15.0,20.7,N/A,,Mostly Cloudy,300,2012-12-06 18:55:00
1:15 PM,42.8,30.2,61,29.84,10.0,NW,15.0,20.7,N/A,,Overcast,310,2012-12-06 19:15:00
1:35 PM,41.0,30.2,65,29.85,10.0,West,13.8,-,N/A,,Mostly Cloudy,270,2012-12-06 19:35:00
1:55 PM,41.0,30.2,65,29.85,10.0,WNW,11.5,20.7,N/A,,Scattered Clouds,290,2012-12-06 19:55:00
2:15 PM,41.0,30.2,65,29.86,10.0,WNW,15.0,19.6,N/A,,Clear,300,2012-12-06 20:15:00
2:35 PM,41.0,30.2,65,29.86,10.0,NW,10.4,-,N/A,,Clear,310,2012-12-06 20:35:00
2:55 PM,41.0,30.2,65,29.86,10.0,West,11.5,-,N/A,,Clear,280,2012-12-06 20:55:00
3:15 PM,41.0,30.2,65,29.87,10.0,WNW,11.5,16.1,N/A,,Clear,290,2012-12-06 21:15:00
3:35 PM,39.2,28.4,65,29.88,10.0,West,9.2,-,N/A,,Clear,280,2012-12-06 21:35:00
3:55 PM,37.4,30.2,75,29.88,10.0,West,6.9,-,N/A,,Clear,280,2012-12-06 21:55:00
4:15 PM,37.4,30.2,75,29.89,10.0,WNW,6.9,-,N/A,,Clear,290,2012-12-06 22:15:00
4:35 PM,37.4,30.2,75,29.90,10.0,WNW,10.4,-,N/A,,Clear,290,2012-12-06 22:35:00
4:55 PM,37.4,30.2,75,29.91,10.0,WNW,6.9,-,N/A,,Clear,290,2012-12-06 22:55:00
5:15 PM,35.6,28.4,75,29.91,10.0,WNW,6.9,-,N/A,,Clear,300,2012-12-06 23:15:00
5:35 PM,35.6,28.4,75,29.92,10.0,WNW,5.8,-,N/A,,Scattered Clouds,290,2012-12-06 23:35:00
5:55 PM,35.6,28.4,75,29.92,10.0,WNW,6.9,-,N/A,,Clear,290,2012-12-06 23:55:00
6:15 PM,35.6,28.4,75,29.94,10.0,WNW,6.9,-,N/A,,Clear,300,2012-12-07 00:15:00
6:35 PM,35.6,28.4,75,29.94,10.0,WNW,9.2,-,N/A,,Clear,300,2012-12-07 00:35:00
6:55 PM,33.8,28.4,81,29.95,10.0,WNW,6.9,-,N/A,,Clear,290,2012-12-07 00:55:00
7:15 PM,33.8,28.4,81,29.96,10.0,WNW,11.5,-,N/A,,Clear,290,2012-12-07 01:15:00
7:35 PM,33.8,26.6,75,29.96,10.0,WNW,12.7,18.4,N/A,,Clear,290,2012-12-07 01:35:00
7:55 PM,32.0,26.6,80,29.97,10.0,WNW,9.2,17.3,N/A,,Clear,300,2012-12-07 01:55:00
8:35 PM,32.0,26.6,80,29.98,10.0,NW,9.2,-,N/A,,Clear,310,2012-12-07 02:35:00
8:55 PM,30.2,26.6,86,29.99,10.0,NW,9.2,-,N/A,,Clear,320,2012-12-07 02:55:00
9:15 PM,30.2,24.8,80,29.99,10.0,NW,6.9,-,N/A,,Clear,310,2012-12-07 03:15:00
9:35 PM,30.2,24.8,80,29.99,10.0,NW,8.1,-,N/A,,Clear,310,2012-12-07 03:35:00
9:55 PM,30.2,23.0,75,29.99,10.0,NW,5.8,-,N/A,,Clear,310,2012-12-07 03:55:00
10:15 PM,28.4,23.0,80,29.99,10.0,WNW,5.8,-,N/A,,Clear,290,2012-12-07 04:15:00
10:35 PM,28.4,23.0,80,30.00,10.0,WNW,6.9,-,N/A,,Clear,290,2012-12-07 04:35:00
10:55 PM,28.4,23.0,80,30.00,10.0,WNW,6.9,-,N/A,,Clear,290,2012-12-07 04:55:00
11:15 PM,26.6,23.0,86,30.01,10.0,WNW,8.1,-,N/A,,Clear,290,2012-12-07 05:15:00
11:35 PM,26.6,23.0,86,30.01,10.0,WNW,6.9,-,N/A,,Clear,300,2012-12-07 05:35:00
11:55 PM,26.6,21.2,80,30.01,10.0,West,8.1,-,N/A,,Clear,280,2012-12-07 05:55:00